Volver al catálogo

RAISE 2

ActivoCienciaSSO
NORAD 49397·PAYLOAD·🇯🇵 Japan

Lanzado Nov 9, 2021 desde Uchinoura Space Center

Loading…

Próximos Pases (próximas 24 horas)

TLE

ActualizadoSource: Space-Track

Época: Sep 13, 2026, 14:45 UTC

1 49397U 21102C   26256.61508156  .00004611  00000-0  20246-3 0  9990
2 49397  97.3198 287.3202 0007750 345.5602  14.5412 15.22391853266885

Sigue RAISE 2 en tiempo real con AllMySat

Download on the App Store